Showing default

FENGYUN 2B, 26382

Orbit data source: Space-Track

FENGYUN 2B, 26382 is a payload satellite owned by CNMSC (CN) in GEO that was launched on Sun, 25 Jun 2000 UTC via a CHANG ZHENG 3 launch vehicle from the Xichang Space Center, China (XSC). Payload-class satellites include a variety of spacecraft equipped with specific instruments for various scientific and technological missions. These include communications satellites like Starlink; space stations such as the ISS; scientific satellites like the Hubble; Earth observation satellites from companies like Planet Labs, Umbra, and HawkEye 360; GPS; miniature CubeSats for education and research; and military/defense satellites.

Not visible in the next 10 days
Identifier
26382, 2000-032A
Orbit
GEO
Country
Flag of CNCN / PRC
Related business
Manufacturer
SISE
Mission
Non-operational Civil Weather
Bus & Motor
FY-2, SHANXI AKM
Mass
651 kg wet, ~600 kg dry
Launch date (UTC)
2000-06-25 (25 years ago)
Launch vehicle
CHANG ZHENG 3
Launch site
Xichang Space Center, China (XSC)
Object type
Payload
Rocket body
Debris
Shape & HBR
Cyl, 1.5 m
Radar Cross Section
6.680 m², Large (>1 m²)

Expand to show TLE details & history
Last TLE update: 1 day ago

TLE from 1 day ago
0 FENGYUN 2B
1 26382U 00032A   25257.61625170 -.00000213  00000-0  00000-0 0  9992
2 26382  12.9988  18.8950 0002401 253.7113  98.5825  1.00108684 92163
Epoch: 2025-09-14T14:47Z
TLE epoch observation values (Epoch: 2025-09-14T14:47:24.146Z)
Latitude
-1.72936°
Longitude
155.71213°
Altitude
35,833.656 km
Speed
3.073 km/s
True Right ascension
00h 45m 34s
True Declination
-1° 43' 39"
Sunlit
Object was in daylight at epoch
Visualization orbit readout
Latitude
Unknown
Longitude
Unknown
Altitude
Unknown
Speed
Unknown
Apparent Right ascension
Unknown
Apparent Declination
Unknown
Sunlit
N/A
Visualization observer readout
Local Sidereal Time
13:27:29
Azimuth
Unknown
Elevation
Unknown
Doppler factor
Unknown
Orbital elements
Apogee altitude
35,843.505 km
Perigee altitude
35,823.235 km
Semi-major axis
42,211.507 km
Eccentricity
0.00024
Inclination
12.9988°
RAAN
18.895°
Arg. of periapsis
253.7113°
True anomaly
98.6097°
Mean anomaly
98.5825°
Eccentric anomaly
98.5961°
Mean motion
0.25026 °/min
Orbital period
1,438.49 mins
BSTAR
0
Loading maneuver chart data...
Computing Atmospheric mass density...
Loading historical data...
Loading historical data...
Loading historical data...
Loading historical data...
Loading historical data...
Loading historical data...
Loading historical data...
Other satellites on launch #32 in the year 2000 (2000-06-25 UTC)

Documentation

Showing up to 5 results
|